GW1540 Weather Reports


time (UTC)temp
C
wind
direction
speed
KPH
gust
KPH
rain 1hr
cm
rain 24hr
cm
rain mn
cm
humidity
%
barometer
mb
20260506030216 6 74 0.0 3.2 0.00 0.89 0.00 94 1012.7
20260506023213 6 74 0.0 3.2 0.00 0.89 0.00 93 1012.9
20260506021702 6 74 0.0 1.6 0.00 0.89 0.00 94 1012.9
20260506014715 7 55 0.0 3.2 0.00 0.89 0.00 93 1012.8
20260506013205 7 55 0.0 0.0 0.00 0.89 0.00 94 1013.0
20260506011659 8 55 0.0 0.0 0.00 0.89 0.00 94 1013.3
20260506004717 8 52 1.6 4.8 0.00 0.89 0.00 94 1013.2
20260506001715 8 211 0.0 0.0 0.00 0.89 0.00 94 1013.7
20260505234700 8 211 0.0 0.0 0.00 0.89 0.00 94 1013.7
20260505231719 8 211 0.0 0.0 0.00 0.89 0.00 94 1014.1
20260505230155 8 211 0.0 0.0 0.00 0.89 0.00 94 1014.0
20260505223210 8 211 0.0 0.0 0.00 0.89 0.00 94 1014.2
20260505220320 8 211 0.0 0.0 0.00 0.89 0.00 94 1014.2
20260505214710 8 211 0.0 0.0 0.00 0.89 0.89 94 1014.5
20260505211721 8 211 0.0 0.0 0.00 0.89 0.89 94 1014.6
20260505204720 8 211 0.0 0.0 0.00 0.89 0.89 93 1014.5
20260505203215 8 211 0.0 0.0 0.00 0.89 0.89 94 1014.7
20260505201653 8 211 0.0 0.0 0.00 0.89 0.89 94 1014.9
20260505194723 8 211 0.0 0.0 0.00 0.89 0.89 94 1014.7
20260505193151 8 211 0.0 0.0 0.03 0.89 0.89 94 1014.6
20260505190221 8 211 0.0 3.2 0.03 0.89 0.89 93 1014.5
20260505183200 8 211 0.0 3.2 0.00 0.89 0.89 93 1014.3
20260505180218 8 211 0.0 0.0 0.00 0.89 0.89 93 1013.8
20260505173215 8 211 0.0 0.0 0.00 0.89 0.89 93 1013.8
20260505171711 8 211 0.0 3.2 0.03 0.89 0.89 93 1013.7
20260505164718 8 202 1.6 4.8 0.05 0.89 0.89 92 1013.7
20260505163213 8 202 1.6 4.8 0.05 0.89 0.89 93 1013.7
20260505161712 8 194 1.6 4.8 0.03 0.86 0.86 92 1014.0
20260505151713 8 200 0.0 3.2 0.03 0.84 0.84 92 1014.0
20260505150201 8 200 0.0 3.2 0.03 0.84 0.84 92 1013.9
20260505124706 8 15 0.0 3.2 0.05 0.76 0.76 90 1014.3
20260505121712 8 15 0.0 3.2 0.03 0.71 0.71 90 1014.3
20260505114712 8 61 1.6 6.4 0.03 0.71 0.71 91 1014.4
20260505111717 8 257 0.0 0.0 0.18 0.71 0.71 92 1014.5
20260505110209 8 257 0.0 3.2 0.30 0.69 0.69 91 1014.5
20260505101714 8 276 1.6 8.0 0.46 0.51 0.51 90 1014.5
20260505100150 8 267 3.2 4.8 0.33 0.36 0.36 90 1014.5
20260505094644 8 342 1.6 9.7 0.20 0.20 0.20 89 1014.4
20260505091710 10 333 0.0 3.2 0.05 0.05 0.05 87 1014.2
20260505084722 10 235 0.0 0.0 0.00 0.00 0.00 88 1014.3
20260505081707 9 244 3.2 8.0 0.00 0.00 0.00 86 1014.4
20260505080207 9 259 0.0 4.8 0.00 0.00 0.00 86 1014.2
20260505074657 10 219 0.0 6.4 0.00 0.00 0.00 85 1014.3
20260505071701 10 243 0.0 4.8 0.00 0.00 0.00 81 1014.2
20260505070159 10 191 0.0 6.4 0.00 0.00 0.00 82 1014.2
20260505063220 10 302 0.0 6.4 0.00 0.00 0.00 85 1014.4
20260505060221 8 226 0.0 0.0 0.00 0.00 0.00 91 1014.3
20260505053210 7 226 0.0 0.0 0.00 0.00 0.00 94 1014.1
20260505050212 6 226 0.0 0.0 0.00 0.00 0.00 95 1014.0
20260505040207 5 226 0.0 0.0 0.00 0.00 0.00 94 1014.4
20260505033223 5 226 0.0 0.0 0.00 0.00 0.00 94 1014.6
20260505031650 4 226 0.0 0.0 0.00 0.00 0.00 94 1014.9